Home > Weather > León > Past weeks

Flag for Nicaragua Past Weather in León, Nicaragua — Yesterday and Last 2 Weeks

Now
73 °F

Passing clouds.


Feels Like: 70 °F
Forecast: 75 / 96 °F
Wind: 5 mph from Southeast

Location: Managua A. C. Sandino

Current Time: Jul 26, 2016 at 4:18:29 AM

Latest Report: Jul 26, 2016 at 3:00 AM


Visibility: N/A

Pressure: 29.83 "Hg

Humidity: 94%

Dew Point: 72 °F

Location of LeónLocation

Past Weather in León — Graph

°F

León Temperature Yesterday

Maximum temperature yesterday: 91 °F (at 12:00 PM)
Minimum temperature yesterday: 75 °F (at 4:00 AM)
Average temperature yesterday: 83 °F

High & Low Weather Summary for the Past Weeks

 TemperatureHumidityPressure
High95 °F (Jul 13, 1:00 PM)100% (Jul 19, 4:00 AM)32.52 "Hg (Jul 19, 4:00 AM)
Low72 °F (Jul 20, 3:00 AM)41% (Jul 24, 3:00 PM)29.74 "Hg (Jul 25, 2:00 PM)
Average81 °F74%29.88 "Hg
* Reported Jul 11 3:00 AM — Jul 26 3:00 AM, León, Weather by CustomWeather, © 2016

Note: Actual official high and low records may vary slightly from our data, if they occured in-between our weather recording intervals... More about our weather records

Advertising

León Weather History for the Previous 24 Hours

Scroll right to see more
 ConditionsComfort  
Time TempWeatherWind HumidityBarometerVisibility
3:00 AM
Tue, Jul 26
73 °FPassing clouds.5 mph94%29.83 "HgN/A
2:00 AM75 °FPassing clouds.5 mph89%29.83 "HgN/A
1:00 AM73 °FPassing clouds.No wind94%29.83 "HgN/A
12:00 AM75 °FPassing clouds.5 mph94%29.83 "HgN/A
11:00 PM
Mon, Jul 25
75 °FPassing clouds.No wind89%29.86 "HgN/A
10:00 PM77 °FPassing clouds.No wind89%29.86 "HgN/A
9:00 PM79 °FPassing clouds.5 mph84%29.83 "HgN/A
7:00 PM82 °FPassing clouds.5 mph79%29.80 "HgN/A
6:00 PM86 °FPassing clouds.9 mph62%29.77 "HgN/A
5:00 PM88 °FPassing clouds.12 mph59%29.74 "HgN/A
4:00 PM88 °FPassing clouds.9 mph59%29.74 "HgN/A
3:00 PM86 °FScattered clouds.12 mph66%29.74 "HgN/A
2:00 PM91 °FPassing clouds.14 mph46%29.74 "HgN/A
1:00 PM91 °FScattered clouds.12 mph49%29.77 "HgN/A
12:00 PM91 °FPassing clouds.14 mph46%29.80 "HgN/A
11:00 AM90 °FPassing clouds.18 mph49%29.83 "HgN/A
10:00 AM86 °FPassing clouds.9 mph62%29.86 "HgN/A
9:00 AM82 °FScattered clouds.12 mph70%29.86 "HgN/A
8:00 AM82 °FPassing clouds.9 mph70%29.89 "HgN/A
7:00 AM79 °FPassing clouds.9 mph79%29.86 "HgN/A
6:00 AM77 °FScattered clouds.5 mph83%29.83 "HgN/A
5:00 AM75 °FPassing clouds.5 mph89%29.83 "HgN/A
4:00 AM75 °FPassing clouds.5 mph89%29.83 "HgN/A
Weather by CustomWeather, © 2016

See weather overviewHow to use our weather pages